Regional Weather Roundup
Issued by NWS Grand Forks, ND

Home | Current Version | Previous Version | Text Only | Print | Product List | Glossary On
Versions: 1 2 3 4 5 6 7 8 9 10 11 12 13 14 15 16 17 18 19 20 21 22 23 24 25 26 27 28 29 30 31 32 33 34 35 36 37 38 39 40 41 42 43 44 45 46 47 48 49 50
000
ASUS43 KFGF 280831
RWRFGF
PRAIRIE TO PINES  WEATHER ROUNDUP
NATIONAL WEATHER SERVICE EASTERN NORTH DAKOTA/GRAND FORKS ND
300 AM CDT TUE JUL 28 2015

 **SATELLITE DATA USED TO AUGMENT SKY COVER AT AUTOMATED STATIONS**
 *****  WEATHER ACROSS EASTERN NORTH DAKOTA  *****

CITY           SKY/WX    TMP DP  RH WIND       PRES   REMARKS
GRAND FORKS    MOCLDY    73  71  93 SE15      29.63F
GRAND FRKS AFB MOCLDY    74  72  93 S12       29.64F
GRAND FRKS NWS   N/A     73 N/A N/A SE13        N/A
DEVILS LAKE    CLOUDY    75  68  78 S18G28    29.56F
FARGO          CLOUDY    77  70  79 SE13G24   29.65F
WAHPETON ARPT  CLOUDY    73  66  78 SE9G17    29.67S
$$

 ***** WEATHER ACROSS CENTRAL AND WESTERN NORTH DAKOTA  *****

CITY           SKY/WX    TMP DP  RH WIND       PRES   REMARKS
BISMARCK       CLOUDY    70  60  70 SW3       29.63R
MINOT          MOCLDY    72  58  61 S12G21    29.53R
JAMESTOWN      LGT RAIN  70  67  90 S10       29.62F
MINOT AFB      MOCLDY    70  63  76 SW8G20    29.51S
GARRISON         N/A     66  61  84 SW8       29.58F
WILLISTON      CLOUDY    64  60  87 SW22G29   29.59S
DICKINSON      PTCLDY    59  55  87 W24G32    29.68S
HETTINGER      PTCLDY    58  53  84 W21G28    29.77R
$$

 *****  OTHER AIRPORT OBSERVATIONS IN OUR AREA  *****

CITY           SKY/WX    TMP DP  RH WIND       PRES   REMARKS
WALHALLA       FAIR      73  73 100 MISG      29.58F
GRAFTON AIRPOR FAIR      73  73 100 SE12      29.62F
VALLEY CITY AR LGT RAIN  73  73 100 SW25      29.67R
CANDO          PTSUNNY   75  73  94 S22G28    29.56F FOG
CAVALIER APRT  FAIR      73  72  94 SE8       29.60F
GWINNER          N/A     70  70 100 W29G41    29.69R
SHEYENNE NWR     N/A     75  72  89 SE9       29.95S
ROLLA          PTSUNNY   73  73 100 S13       29.56F
 ***** THE ABOVE OBSERVATIONS ARE NON NWS ARE NOT QUALITY
       CONTROLLED AND MAY MIS-REPORT RAIN FOR SNOW...
$$

  *****  WEATHER ACROSS NORTHERN MINNESOTA  *****

CITY           SKY/WX    TMP DP  RH WIND       PRES   REMARKS
FLAG ISLAND    PTCLDY    75  72  88 S21       29.74F
WARROAD        PTCLDY    72  68  88 SE8       29.74F
ROSEAU         PTCLDY    73  66  78 SE8       29.72F
HALLOCK        CLEAR     73  72  94 SE13      29.63F
THF RVR FALLS  PTCLDY    73  70  88 SE10      29.70F
BAUDETTE       PTCLDY    72  67  84 SE9       29.78F
WASKISH        PTCLDY    72  70  94 E6        29.76F
CROOKSTON      PTCLDY    73  72  94 SE12      29.66F
STEPHEN NDAWN    N/A     73  72  94 SE10        N/A
GREENBUSH NDAW   N/A     73  70  88 SE7         N/A
$$
  *****  WEATHER ACROSS CENTRAL AND WEST MINNESOTA  *****

CITY           SKY/WX    TMP DP  RH WIND       PRES   REMARKS
FOSSTON        PTCLDY    72  68  88 SE12      29.72F
BEMIDJI        CLOUDY    73  70  88 SE10      29.76F
PARK RAPIDS    CLOUDY    75  69  81 SE14      29.77F
ELBOW LAKE     FAIR      73  67  83 SE20G25   29.69F
WADENA         PTCLDY    72  70  94 SE10      29.75F
DETROIT LAKES  PTCLDY    73  70  88 SE12      29.74F
MOORHEAD       MOCLDY    75  72  88 SE14G20   29.67S
FERGUS FALLS   MOCLDY    75  66  73 SE14G23   29.67F
MORRIS MN      TSTM      72  70  94 SE9       29.70S
STAPLES        PTCLDY    72  70  94 SE10G17   29.77F
$$
  *****  WEATHER ELSEWHERE ACROSS MINNESOTA  *****

CITY           SKY/WX    TMP DP  RH WIND       PRES   REMARKS
DULUTH         CLEAR     73  65  75 S10       29.90F
INTRNTL FALLS  CLEAR     69  65  86 E5        29.83F
ELY            CLEAR     66  61  82 SE5       29.89F
CLOQUET        CLEAR     68  64  88 E5        29.87F
WHEATON        TSTM      72  66  83 S16G24    29.73R
BRAINERD       PTCLDY    73  70  90 SE9       29.80F
HIBBING        CLEAR     66  63  90 SE7       29.87F
ALEXANDRIA     CLEAR     72  68  87 SE13      29.75F
SAINT CLOUD    MOCLDY    73  71  93 SE13      29.82F
MINNEAPOLIS    PTCLDY    75  70  84 SE9       29.86F
$$

  *****  WEATHER ACROSS SOUTH DAKOTA  *****

CITY           SKY/WX    TMP DP  RH WIND       PRES   REMARKS
SIOUX FALLS    MOCLDY    75  71  87 S17G33    29.70F
BROOKINGS      CLOUDY    70  64  83 W25G45    29.80R THUNDER
WATERTOWN      RAIN      68  66  93 NW10      29.78R FOG
HURON          CLOUDY    68  66  93 SE12G25   29.67F
SISSETON         N/A     70  67  90 W10G23    29.67S
ABERDEEN       LGT RAIN  68  66  93 E22       29.57F
MITCHELL       LGT RAIN  69  67  93 CALM      29.74F
PIERRE         CLOUDY    67  66  97 W7        29.70R
MOBRIDGE       CLOUDY    71  65  81 W12       29.67R
RAPID CITY     CLEAR     59  51  75 NW15      29.87R
$$

  *****  SOME WEATHER IN NEARBY STATES *****

CITY           SKY/WX    TMP DP  RH WIND       PRES   REMARKS
GLASGOW MT     RAIN      57  54  89 SW24G31   29.65F FOG
GREAT FALLS MT LGT RAIN  51  47  86 W10       30.02F
CHEYENNE WY    LGT RAIN  61  30  31 NW24G38   30.08R
SCOTTSBLUFF NE CLEAR     62  52  69 N20G26    29.97R
OMAHA NE       CLEAR     77  71  82 S13       29.81F
DES MOINES IA  MOCLDY    74  70  87 SE7       29.87F
DAVENPORT IA   CLEAR     72  70  93 E6        29.96S
CHICAGO IL     PTCLDY    71  66  84 N6        29.99F
EAU CLAIRE WI  CLEAR     72  66  81 SE9       29.92F
LA CROSSE WI   CLEAR     73  68  84 SE7       29.93F
$$

  *****  SOME NATIONAL WEATHER *****

CITY           SKY/WX    TMP DP  RH WIND       PRES   REMARKS
LA GUARDIA NY  PTCLDY    77  69  76 W7        29.99S
RALEIGH NC     MOCLDY    76  70  82 CALM      30.01F
ATLANTA GA     PTCLDY    78  71  79 CALM      29.98F
NEW ORLEANS LA PTCLDY    79  73  82 NW5       29.97F
OKLAHOMA CITY  CLEAR     77  70  79 S9        29.90F
ALBUQUERQUE NM MOCLDY    79  49  34 SE8       30.08F
SALT LAKE CITY CLEAR     60  38  43 N6        30.16R
LOS ANGELES CA PTCLDY    67  63  87 W5        29.90S
BOISE ID       CLEAR     58  36  43 W5        30.19R
SEATTLE WA     PTCLDY    63  53  70 N7        30.25S
$$

*** WEATHER ACROSS MANITOBA...SASKATCHEWAN AND ONTARIO ***
                ***ONTARIO***

CITY           SKY/WX    TMP DP  RH WIND       PRES   REMARKS
GERALDTON      CLEAR     64  57  77 SW2       29.96S
THUNDER BAY    CLEAR     63  61  94 NE6       29.95F
SIOUX LOOKOUT  CLEAR     70  63  78 S5        29.87F
TORONTO        CLEAR     70  61  73 NW2       30.02F
BIG TROUT LK   CLEAR     64  57  77 N5        29.86F
PICKLE LAKE    NOT AVBL
DRYDEN         CLEAR     72  64  78 SE9       29.86F
KENORA         PTCLDY    73  68  83 S10       29.80F
$$
                *** MANITOBA***

CITY           SKY/WX    TMP DP  RH WIND       PRES   REMARKS
BRANDON        CLOUDY    73  72  94 S12G18    29.54R
DAUPHIN        TSTM      63  63 100 E15       29.58S FOG
ISLAND LAKE    CLOUDY    68  61  77 VRB3      29.83F
PILOT MOUND      N/A     73  70  88 SE16G22     N/A
THE PAS        PTCLDY    66  59  77 NE3       29.76F
THOMPSON       CLOUDY    57  54  88 NE2       29.81F
WINNIPEG       PTCLDY    75  70  83 SE14G21   29.65F
LYNN LAKE      CLEAR     59  50  72 SW5       29.79F
CHURCHILL      PTCLDY    54  54 100 NE8       29.76S
GILLAM         CLEAR     59  55  88 SW3       29.82R
$$
                ***SASKATCHEWAN***

CITY           SKY/WX    TMP DP  RH WIND       PRES   REMARKS
ESTEVAN        CLOUDY    64  61  88 S16G24    29.48R
KINDERSLEY     LGT RAIN  55  55 100 N10       29.80S
LLOYDMINSTER   MOCLDY    55  48  76 NW8       29.85F
PRINCE ALBERT  SHOWER    59  59 100 NE5       29.77F
REGINA         CLOUDY    63  61  94 NE20G30   29.44F
YORKTON        RAIN      61  59  94 NE18      29.56F FOG
N. BATTLEFORD  CLOUDY    57  57 100 N8        29.81F
LA RONGE       PTCLDY    55  52  88 SE2       29.81R
SASKATOON      LGT RAIN  59  57  94 NE16      29.74F
SWIFT CURRENT  RAIN      55 N/A N/A N22G31    29.64F
$$
NOTE: THESE ARE AUTOMATED STATIONS WITH LIMITED QUALITY CONTROL
      "FAIR" INDICATES FEW OR NO CLOUDS BELOW 12,000 FEET WITH NO
      SIGNIFICANT WEATHER AND/OR OBSTRUCTIONS TO VISIBILITY.
      SKY/WX - SKY CONDITION AND SIGNIFICANT WEATHER.
      TMP - AIR TEMPERATURE.    DP   - DEWPOINT TEMPERATURE.
      RH  - RELATIVE HUMIDITY.  PRES - PRESSURE.
      HX  - HEAT INDEX.         WCI  - WIND CHILL INDEX.
$


USA.gov is the U.S. government's official web portal to all federal, state and local government web resources and services.